This demonstration page uses our WeatherBlox Daily Observations layout. Learn more.

Left ArrowRight Arrow

41.86663, -103.66717

Hourly Observations for January 17, 2021

Temp ( °F °C ) Dew Point ( °F °C ) Humidity (%) Winds ( mph kmh ) Pressure ( in mb ) Visibility ( mi km ) Precip ( " mm )
12:53 am 00:53 Clear 21 -6.1 13 -10.6 71 71 WNW 7 11 30.16 1022 10 16 0.00 0.00
1:53 am 01:53 Clear 21 -6.1 13 -10.6 71 71 WNW 8 13 30.16 1022 10 16 0.00 0.00
2:53 am 02:53 Clear 18 -7.8 11 -11.7 74 74 NW 5 7 30.17 1022 10 16 0.00 0.00
3:53 am 03:53 Clear 22 -5.6 14 -10 71 71 WNW 8 13 30.16 1021 10 16 0.00 0.00
4:53 am 04:53 Clear 25 -3.9 15 -9.4 66 66 WNW 10 17 30.17 1022 10 16 0.00 0.00
5:53 am 05:53 Clear 24 -4.4 15 -9.4 68 68 WNW 8 13 30.16 1022 10 16 0.00 0.00
6:53 am 06:53 Clear 24 -4.4 15 -9.4 68 68 NW 7 11 30.16 1021 10 16 0.00 0.00
7:53 am 07:53 Partly Cloudy 23 -5 15 -9.4 72 72 N 3 6 30.16 1021 10 16 0.00 0.00
8:53 am 08:53 Sunny 29 -1.7 17 -8.3 61 61 NW 6 9 30.15 1021 10 16 0.00 0.00
9:53 am 09:53 Sunny 34 1.1 18 -7.8 52 52 WNW 7 11 30.13 1020 10 16 0.00 0.00
10:53 am 10:53 Cloudy 39 3.9 18 -7.8 43 43 NW 7 11 30.09 1019 10 16 0.00 0.00
11:53 am 11:53 Partly Cloudy 42 5.6 18 -7.8 38 38 W 8 13 30.04 1017 10 16 0.00 0.00
12:53 pm 12:53 Cloudy 45 7.2 18 -7.8 34 34 NW 10 17 29.99 1016 10 16 0.00 0.00
1:53 pm 13:53 Cloudy 46 7.8 17 -8.3 31 31 W 14 22 29.94 1014 10 16 0.00 0.00
2:53 pm 14:53 Mostly Cloudy 47 8.3 17 -8.3 30 30 W 14 22 29.92 1013 10 16 0.00 0.00
3:53 pm 15:53 Sunny 46 7.8 18 -7.8 32 32 WNW 8 13 29.89 1012 10 16 0.00 0.00
4:53 pm 16:53 Mostly Cloudy 42 5.6 18 -7.8 38 38 Calm 29.86 1011 10 16 0.00 0.00
5:53 pm 17:53 Mostly Cloudy 38 3.3 19 -7.2 46 46 Calm 29.86 1011 10 16 0.00 0.00
6:53 pm 18:53 Cloudy 37 2.8 20 -6.7 50 50 N 5 7 29.85 1011 10 16 0.00 0.00
7:53 pm 19:53 Cloudy 38 3.3 21 -6.1 51 51 NNE 6 9 29.84 1010 10 16 0.00 0.00
8:53 pm 20:53 Cloudy 36 2.2 22 -5.6 57 57 NNW 7 11 29.84 1010 10 16 0.00 0.00
9:53 pm 21:53 Cloudy 40 4.4 25 -3.9 55 55 NNW 18 30 29.86 1011 10 16 0.00 0.00
10:53 pm 22:53 Cloudy 38 3.3 27 -2.8 65 65 WNW 12 19 29.86 1011 10 16 0.00 0.00
11:53 pm 23:53 Cloudy 39 3.9 28 -2.2 65 65 WNW 12 19 29.86 1011 10 16 0.00 0.00

Powered by AerisWeather